Location: Auckland
(36.8670°S, 174.7670°E)
Time: 02:18:38
(UTC+12:00)

Hubble Space Telescope - Visible Passes

Search period start: 26 June 2019 00:00
Search period end: 06 July 2019 00:00
Orbit: 536 x 540 km, 28.5° (Epoch: 25 June)

Date Brightness Start Highest point End Pass type
(mag) Time Alt. Az. Time Alt. Az. Time Alt. Az.
30 Jun 3.9 06:06:44 10° NNE 06:07:09 10° NNE 06:07:35 10° NNE visible
01 Jul 3.5 05:54:45 10° N 05:56:30 12° NNE 05:58:15 10° NE visible
02 Jul 3.4 05:43:31 10° NNW 05:45:51 15° NNE 05:48:12 10° NE visible
03 Jul 3.1 05:33:39 14° NNW 05:35:13 17° NNE 05:37:56 10° NE visible
04 Jul 2.9 05:24:00 19° N 05:24:35 19° NNE 05:27:34 10° ENE visible
04 Jul 2.7 07:01:48 10° WNW 07:05:15 25° N 07:08:43 10° NE visible
05 Jul 2.8 05:14:15 21° NNE 05:14:15 21° NNE 05:17:09 10° ENE visible
05 Jul 2.6 06:51:13 10° WNW 06:54:39 25° N 06:58:06 10° NE visible
